LAN273 SCEL-SCTE

Flight info

Callsign LAN273
Flight time 1h 22m
Altitude 35000
Route ANGOD6C ANGOD UQ803 ERUKA DCT SARTO SARTO2A
Aircraft A320/M-SDE3FGHIRWY/LB1

Departure

Time 2026-05-04 13:29
Airport Comodoro Arturo Merino Benítez International Airport (SCEL)

Arrival

Time 2026-05-04 14:51
Airport El Tepual International Airport (SCTE)
Time Latitude Longitude Altitude Speed Heading
2026-05-04 12:38 -33.39574 -70.79154 1565 ft 0 kts 176°
2026-05-04 13:19 -33.39554 -70.79155 1564 ft 4 kts 172°
2026-05-04 13:20 -33.39528 -70.79162 1564 ft 4 kts 160°
2026-05-04 13:20 -33.39505 -70.79176 1564 ft 4 kts 121°
2026-05-04 13:20 -33.39501 -70.79193 1564 ft 1 kts 87°
2026-05-04 13:20 -33.39501 -70.79195 1564 ft 0 kts 87°
2026-05-04 13:23 -33.39501 -70.79193 1564 ft 2 kts 87°
2026-05-04 13:23 -33.39498 -70.79136 1564 ft 8 kts 87°
2026-05-04 13:23 -33.39495 -70.79051 1564 ft 11 kts 87°
2026-05-04 13:23 -33.39492 -70.78968 1564 ft 9 kts 87°
2026-05-04 13:24 -33.39485 -70.78899 1564 ft 9 kts 65°
2026-05-04 13:24 -33.39441 -70.78861 1564 ft 7 kts 28°
2026-05-04 13:24 -33.39389 -70.78827 1564 ft 8 kts 28°
2026-05-04 13:25 -33.39274 -70.78797 1564 ft 11 kts 356°
2026-05-04 13:25 -33.39181 -70.78804 1564 ft 15 kts 356°
2026-05-04 13:25 -33.39065 -70.78811 1564 ft 18 kts 358°
2026-05-04 13:25 -33.38933 -70.78817 1564 ft 20 kts 358°
2026-05-04 13:26 -33.38793 -70.78824 1564 ft 21 kts 357°
2026-05-04 13:26 -33.38646 -70.78831 1564 ft 22 kts 357°
2026-05-04 13:26 -33.38491 -70.78840 1564 ft 22 kts 358°
2026-05-04 13:26 -33.38332 -70.78847 1564 ft 23 kts 357°
2026-05-04 13:27 -33.38169 -70.78856 1564 ft 24 kts 358°
2026-05-04 13:27 -33.38001 -70.78865 1564 ft 24 kts 358°
2026-05-04 13:27 -33.37829 -70.78873 1564 ft 25 kts 357°
2026-05-04 13:27 -33.37690 -70.78882 1564 ft 13 kts 356°
2026-05-04 13:28 -33.37614 -70.78841 1564 ft 13 kts 59°
2026-05-04 13:28 -33.37613 -70.78742 1564 ft 11 kts 101°
2026-05-04 13:28 -33.37643 -70.78673 1565 ft 8 kts 147°
2026-05-04 13:28 -33.37704 -70.78665 1565 ft 17 kts 178°
2026-05-04 13:29 -33.38065 -70.78646 1565 ft 87 kts 177°
2026-05-04 13:29 -33.38872 -70.78600 1565 ft 143 kts 177°
2026-05-04 13:29 -33.40017 -70.78538 1647 ft 179 kts 178°
2026-05-04 13:29 -33.41222 -70.78474 2405 ft 169 kts 177°
2026-05-04 13:30 -33.42386 -70.78408 3172 ft 166 kts 178°
2026-05-04 13:30 -33.43552 -70.78336 3687 ft 175 kts 177°
2026-05-04 13:30 -33.44839 -70.78251 3967 ft 196 kts 177°
2026-05-04 13:30 -33.46282 -70.78160 4225 ft 218 kts 177°
2026-05-04 13:31 -33.47877 -70.78061 4524 ft 242 kts 177°
2026-05-04 13:31 -33.49637 -70.77953 4895 ft 265 kts 177°
2026-05-04 13:31 -33.51529 -70.77837 5528 ft 277 kts 177°
2026-05-04 13:31 -33.53486 -70.77753 6257 ft 286 kts 184°
2026-05-04 13:32 -33.55459 -70.78195 6979 ft 292 kts 194°
2026-05-04 13:32 -33.56803 -70.78575 7490 ft 296 kts 195°
2026-05-04 13:32 -33.58823 -70.79149 8269 ft 301 kts 195°
2026-05-04 13:32 -33.60874 -70.79751 9039 ft 306 kts 196°
2026-05-04 13:33 -33.62952 -70.80392 9811 ft 311 kts 197°
2026-05-04 13:33 -33.65072 -70.81062 10383 ft 323 kts 197°
2026-05-04 13:33 -33.67318 -70.81780 10620 ft 346 kts 197°
2026-05-04 13:33 -33.69726 -70.82545 10885 ft 365 kts 197°
2026-05-04 13:34 -33.72205 -70.83324 11518 ft 372 kts 197°
2026-05-04 13:34 -33.74716 -70.84109 12258 ft 374 kts 197°
2026-05-04 13:34 -33.77241 -70.84896 13007 ft 376 kts 198°
2026-05-04 13:34 -33.79782 -70.85683 13767 ft 378 kts 198°
2026-05-04 13:35 -33.82337 -70.86475 14457 ft 379 kts 198°
2026-05-04 13:35 -33.87463 -70.88069 15856 ft 381 kts 199°
2026-05-04 13:35 -33.90028 -70.88869 16524 ft 382 kts 199°
2026-05-04 13:36 -33.92605 -70.89679 17172 ft 383 kts 200°
2026-05-04 13:36 -33.95185 -70.90487 17818 ft 384 kts 200°
2026-05-04 13:36 -33.97777 -70.91295 18367 ft 386 kts 200°
2026-05-04 13:36 -34.00386 -70.92111 18895 ft 387 kts 200°
2026-05-04 13:37 -34.03002 -70.92917 19425 ft 389 kts 200°
2026-05-04 13:37 -34.05649 -70.93673 19925 ft 393 kts 199°
2026-05-04 13:37 -34.08357 -70.94403 20439 ft 395 kts 199°
2026-05-04 13:37 -34.11024 -70.95101 20959 ft 398 kts 199°
2026-05-04 13:38 -34.13773 -70.95817 21455 ft 401 kts 199°
2026-05-04 13:38 -34.16503 -70.96538 21947 ft 403 kts 199°
2026-05-04 13:38 -34.19250 -70.97275 22412 ft 406 kts 200°
2026-05-04 13:38 -34.22013 -70.98026 22888 ft 408 kts 200°
2026-05-04 13:39 -34.24791 -70.98786 23337 ft 410 kts 200°
2026-05-04 13:39 -34.27577 -70.99551 23751 ft 413 kts 200°
2026-05-04 13:39 -34.30391 -71.00326 24121 ft 415 kts 200°
2026-05-04 13:39 -34.33211 -71.01099 24472 ft 417 kts 200°
2026-05-04 13:40 -34.36051 -71.01875 24840 ft 419 kts 200°
2026-05-04 13:40 -34.38903 -71.02653 25200 ft 421 kts 200°
2026-05-04 13:40 -34.41765 -71.03435 25550 ft 423 kts 200°
2026-05-04 13:40 -34.44639 -71.04223 25863 ft 424 kts 200°
2026-05-04 13:41 -34.47525 -71.05015 26215 ft 426 kts 200°
2026-05-04 13:41 -34.50423 -71.05810 26573 ft 428 kts 200°
2026-05-04 13:41 -34.53333 -71.06609 26927 ft 430 kts 201°
2026-05-04 13:42 -34.59187 -71.08219 27580 ft 433 kts 201°
2026-05-04 13:42 -34.62131 -71.09032 27914 ft 435 kts 201°
2026-05-04 13:42 -34.65089 -71.09847 28234 ft 437 kts 201°
2026-05-04 13:42 -34.68057 -71.10664 28556 ft 438 kts 201°
2026-05-04 13:43 -34.71036 -71.11486 28838 ft 440 kts 201°
2026-05-04 13:43 -34.74030 -71.12303 29137 ft 442 kts 200°
2026-05-04 13:43 -34.77051 -71.13075 29427 ft 445 kts 199°
2026-05-04 13:43 -34.80088 -71.13806 29728 ft 447 kts 199°
2026-05-04 13:44 -34.83156 -71.14523 30010 ft 449 kts 199°
2026-05-04 13:44 -34.86219 -71.15238 30374 ft 447 kts 199°
2026-05-04 13:44 -34.89307 -71.15967 30733 ft 446 kts 199°
2026-05-04 13:44 -34.92346 -71.16697 31079 ft 444 kts 200°
2026-05-04 13:45 -34.95368 -71.17432 31423 ft 443 kts 200°
2026-05-04 13:45 -34.98392 -71.18174 31766 ft 442 kts 200°
2026-05-04 13:45 -35.01404 -71.18913 32105 ft 441 kts 200°
2026-05-04 13:45 -35.04405 -71.19647 32438 ft 440 kts 200°
2026-05-04 13:46 -35.07407 -71.20380 32772 ft 439 kts 200°
2026-05-04 13:46 -35.10403 -71.21110 33104 ft 438 kts 200°
2026-05-04 13:46 -35.13389 -71.21839 33443 ft 437 kts 200°
2026-05-04 13:46 -35.16370 -71.22568 33777 ft 436 kts 200°
2026-05-04 13:47 -35.19343 -71.23296 34114 ft 435 kts 200°
2026-05-04 13:47 -35.22309 -71.24021 34398 ft 434 kts 200°
2026-05-04 13:47 -35.25272 -71.24748 34681 ft 434 kts 201°
2026-05-04 13:47 -35.28226 -71.25476 34954 ft 433 kts 201°
2026-05-04 13:48 -35.31182 -71.26204 35072 ft 433 kts 201°
2026-05-04 13:48 -35.34139 -71.26931 35105 ft 434 kts 200°
2026-05-04 13:48 -35.40050 -71.28385 35095 ft 433 kts 201°
2026-05-04 13:49 -35.45962 -71.29841 35097 ft 433 kts 201°
2026-05-04 13:49 -35.51872 -71.31303 35096 ft 433 kts 201°
2026-05-04 13:50 -35.57785 -71.32773 35100 ft 434 kts 201°
2026-05-04 13:50 -35.63706 -71.34247 35099 ft 434 kts 201°
2026-05-04 13:51 -35.69628 -71.35716 35097 ft 434 kts 201°
2026-05-04 13:51 -35.75550 -71.37176 35098 ft 434 kts 201°
2026-05-04 13:52 -35.84440 -71.39390 35102 ft 435 kts 201°
2026-05-04 13:53 -35.90414 -71.40896 35107 ft 435 kts 201°
2026-05-04 13:53 -35.96352 -71.42385 35109 ft 435 kts 201°
2026-05-04 13:54 -36.05260 -71.44609 35111 ft 435 kts 201°
2026-05-04 13:55 -36.14148 -71.46854 35114 ft 434 kts 201°
2026-05-04 13:55 -36.23033 -71.49085 35114 ft 434 kts 201°
2026-05-04 13:56 -36.28951 -71.50566 35117 ft 434 kts 201°
2026-05-04 13:57 -36.37813 -71.52801 35119 ft 433 kts 202°
2026-05-04 13:58 -36.49600 -71.55802 35117 ft 432 kts 202°
2026-05-04 13:58 -36.58428 -71.58039 35125 ft 431 kts 202°
2026-05-04 13:59 -36.64298 -71.59536 35120 ft 430 kts 202°
2026-05-04 14:00 -36.73085 -71.61786 35115 ft 429 kts 202°
2026-05-04 14:00 -36.81891 -71.64039 35111 ft 428 kts 202°
2026-05-04 14:01 -36.87731 -71.65534 35107 ft 428 kts 202°
2026-05-04 14:02 -36.96489 -71.67779 35103 ft 428 kts 202°
2026-05-04 14:02 -37.02329 -71.69282 35108 ft 429 kts 202°
2026-05-04 14:03 -37.08171 -71.70790 35111 ft 429 kts 202°
2026-05-04 14:03 -37.14013 -71.72296 35105 ft 429 kts 202°
2026-05-04 14:04 -37.22764 -71.74561 35112 ft 427 kts 202°
2026-05-04 14:04 -37.27608 -71.75817 35109 ft 428 kts 202°
2026-05-04 14:05 -37.36388 -71.78092 35105 ft 427 kts 203°
2026-05-04 14:06 -37.42210 -71.79608 35107 ft 427 kts 203°
2026-05-04 14:06 -37.48029 -71.81128 35109 ft 427 kts 203°
2026-05-04 14:07 -37.53842 -71.82646 35106 ft 426 kts 203°
2026-05-04 14:07 -37.59647 -71.84156 35105 ft 425 kts 204°
2026-05-04 14:08 -37.65438 -71.85674 35106 ft 425 kts 204°
2026-05-04 14:08 -37.71220 -71.87199 35107 ft 424 kts 204°
2026-05-04 14:09 -37.79784 -71.89738 35104 ft 420 kts 206°
2026-05-04 14:10 -37.88277 -71.92476 35093 ft 420 kts 206°
2026-05-04 14:10 -37.93947 -71.94260 35100 ft 420 kts 206°
2026-05-04 14:11 -37.99615 -71.96028 35094 ft 420 kts 206°
2026-05-04 14:11 -38.08136 -71.98686 35100 ft 420 kts 206°
2026-05-04 14:12 -38.13803 -72.00466 35100 ft 419 kts 206°
2026-05-04 14:13 -38.22288 -72.03135 35098 ft 418 kts 206°
2026-05-04 14:13 -38.27973 -72.04929 35097 ft 418 kts 206°
2026-05-04 14:14 -38.33611 -72.06708 35097 ft 418 kts 207°
2026-05-04 14:14 -38.42068 -72.09391 35102 ft 417 kts 207°
2026-05-04 14:15 -38.53321 -72.12964 35103 ft 416 kts 207°
2026-05-04 14:16 -38.61739 -72.15648 35091 ft 415 kts 207°
2026-05-04 14:17 -38.70059 -72.18321 35092 ft 415 kts 207°
2026-05-04 14:18 -38.78457 -72.21008 35091 ft 414 kts 207°
2026-05-04 14:19 -38.89633 -72.24606 35091 ft 414 kts 207°
2026-05-04 14:19 -38.95222 -72.26409 35083 ft 414 kts 207°
2026-05-04 14:20 -39.00820 -72.28203 35081 ft 414 kts 207°
2026-05-04 14:20 -39.06408 -72.30004 35079 ft 414 kts 208°
2026-05-04 14:21 -39.14823 -72.32724 35080 ft 414 kts 208°
2026-05-04 14:21 -39.20409 -72.34531 35072 ft 414 kts 208°
2026-05-04 14:22 -39.25993 -72.36343 35073 ft 414 kts 208°
2026-05-04 14:22 -39.31565 -72.38156 35077 ft 413 kts 208°
2026-05-04 14:23 -39.39923 -72.40878 35073 ft 412 kts 208°
2026-05-04 14:24 -39.45479 -72.42696 35070 ft 412 kts 208°
2026-05-04 14:24 -39.51038 -72.44513 35056 ft 412 kts 208°
2026-05-04 14:25 -39.56599 -72.46332 35073 ft 412 kts 208°
2026-05-04 14:25 -39.64931 -72.49073 35061 ft 412 kts 208°
2026-05-04 14:26 -39.70487 -72.50896 35073 ft 412 kts 208°
2026-05-04 14:26 -39.76040 -72.52717 35072 ft 412 kts 208°
2026-05-04 14:27 -39.81606 -72.54511 34872 ft 412 kts 208°
2026-05-04 14:27 -39.84389 -72.55398 34635 ft 412 kts 208°
2026-05-04 14:27 -39.87205 -72.56299 34389 ft 412 kts 208°
2026-05-04 14:28 -39.89983 -72.57194 34157 ft 412 kts 208°
2026-05-04 14:28 -39.92765 -72.58095 33920 ft 412 kts 208°
2026-05-04 14:28 -39.95549 -72.58999 33651 ft 413 kts 208°
2026-05-04 14:28 -39.98337 -72.59903 33386 ft 413 kts 208°
2026-05-04 14:29 -40.03924 -72.61718 32864 ft 414 kts 207°
2026-05-04 14:29 -40.09531 -72.63543 32359 ft 416 kts 207°
2026-05-04 14:30 -40.12342 -72.64457 32106 ft 417 kts 207°
2026-05-04 14:30 -40.15157 -72.65373 31857 ft 417 kts 207°
2026-05-04 14:30 -40.20799 -72.67217 30912 ft 420 kts 207°
2026-05-04 14:31 -40.23646 -72.68150 30191 ft 420 kts 207°
2026-05-04 14:31 -40.29246 -72.69960 28988 ft 409 kts 207°
2026-05-04 14:32 -40.34710 -72.71728 27846 ft 400 kts 207°
2026-05-04 14:32 -40.37395 -72.72602 27267 ft 395 kts 207°
2026-05-04 14:32 -40.40024 -72.73464 26735 ft 391 kts 207°
2026-05-04 14:32 -40.42651 -72.74331 26189 ft 387 kts 207°
2026-05-04 14:33 -40.45252 -72.75191 25649 ft 384 kts 207°
2026-05-04 14:33 -40.47831 -72.76045 25116 ft 381 kts 207°
2026-05-04 14:33 -40.50388 -72.76890 24586 ft 378 kts 207°
2026-05-04 14:33 -40.52925 -72.77727 24080 ft 374 kts 207°
2026-05-04 14:34 -40.55443 -72.78559 23568 ft 372 kts 207°
2026-05-04 14:34 -40.57941 -72.79382 23036 ft 368 kts 206°
2026-05-04 14:34 -40.60409 -72.80193 22559 ft 363 kts 206°
2026-05-04 14:34 -40.62838 -72.80991 22126 ft 358 kts 206°
2026-05-04 14:35 -40.65244 -72.81782 21692 ft 354 kts 206°
2026-05-04 14:35 -40.67618 -72.82563 21289 ft 350 kts 206°
2026-05-04 14:35 -40.69965 -72.83337 20884 ft 347 kts 206°
2026-05-04 14:35 -40.72326 -72.84120 20471 ft 345 kts 206°
2026-05-04 14:36 -40.74648 -72.84893 20056 ft 344 kts 206°
2026-05-04 14:36 -40.76962 -72.85665 19643 ft 343 kts 206°
2026-05-04 14:36 -40.79270 -72.86435 19218 ft 342 kts 205°
2026-05-04 14:36 -40.81573 -72.87203 18798 ft 341 kts 205°
2026-05-04 14:37 -40.83870 -72.87967 18360 ft 340 kts 205°
2026-05-04 14:37 -40.86161 -72.88730 17955 ft 339 kts 205°
2026-05-04 14:37 -40.88442 -72.89493 17527 ft 337 kts 205°
2026-05-04 14:37 -40.90707 -72.90251 17084 ft 335 kts 205°
2026-05-04 14:38 -40.92204 -72.90752 16792 ft 334 kts 204°
2026-05-04 14:38 -40.94462 -72.91479 16323 ft 336 kts 201°
2026-05-04 14:38 -40.96812 -72.91854 15834 ft 342 kts 195°
2026-05-04 14:38 -40.99181 -72.92143 15361 ft 342 kts 195°
2026-05-04 14:39 -41.01549 -72.92430 14879 ft 342 kts 194°
2026-05-04 14:39 -41.03913 -72.92717 14393 ft 341 kts 194°
2026-05-04 14:39 -41.06277 -72.93007 13910 ft 342 kts 194°
2026-05-04 14:40 -41.11036 -72.93602 12873 ft 340 kts 193°
2026-05-04 14:40 -41.13387 -72.93893 12374 ft 339 kts 193°
2026-05-04 14:40 -41.15731 -72.94183 11867 ft 338 kts 193°
2026-05-04 14:40 -41.18068 -72.94477 11363 ft 337 kts 193°
2026-05-04 14:41 -41.20406 -72.94775 10844 ft 338 kts 193°
2026-05-04 14:41 -41.22731 -72.95068 10519 ft 332 kts 192°
2026-05-04 14:41 -41.27183 -72.95578 10266 ft 311 kts 191°
2026-05-04 14:42 -41.31425 -72.95747 10012 ft 302 kts 188°
2026-05-04 14:42 -41.33536 -72.95788 9653 ft 307 kts 188°
2026-05-04 14:42 -41.35667 -72.95836 9308 ft 303 kts 188°
2026-05-04 14:43 -41.37767 -72.95889 8925 ft 302 kts 188°
2026-05-04 14:43 -41.39862 -72.95952 8523 ft 301 kts 188°
2026-05-04 14:43 -41.41948 -72.96017 8144 ft 299 kts 188°
2026-05-04 14:43 -41.44021 -72.96085 7750 ft 297 kts 188°
2026-05-04 14:44 -41.46086 -72.96156 7359 ft 295 kts 187°
2026-05-04 14:44 -41.48129 -72.96227 6960 ft 293 kts 187°
2026-05-04 14:44 -41.50165 -72.96298 6569 ft 291 kts 187°
2026-05-04 14:44 -41.52178 -72.96362 5927 ft 289 kts 186°
2026-05-04 14:45 -41.54179 -72.96425 5267 ft 287 kts 186°
2026-05-04 14:45 -41.56164 -72.96487 4662 ft 283 kts 186°
2026-05-04 14:45 -41.58057 -72.96542 4503 ft 262 kts 187°
2026-05-04 14:45 -41.59776 -72.96913 4137 ft 241 kts 211°
2026-05-04 14:46 -41.61048 -72.98189 3984 ft 224 kts 238°
2026-05-04 14:46 -41.61744 -72.99992 3768 ft 215 kts 262°
2026-05-04 14:46 -41.61834 -73.01949 3561 ft 211 kts 276°
2026-05-04 14:46 -41.61786 -73.03942 3350 ft 213 kts 276°
2026-05-04 14:47 -41.61591 -73.05897 3173 ft 209 kts 290°
2026-05-04 14:47 -41.60960 -73.07573 3065 ft 198 kts 308°
2026-05-04 14:47 -41.60010 -73.08825 3005 ft 187 kts 324°
2026-05-04 14:47 -41.58878 -73.09597 2957 ft 181 kts 340°
2026-05-04 14:48 -41.57646 -73.09880 2805 ft 177 kts 355°
2026-05-04 14:48 -41.56466 -73.09840 2584 ft 163 kts 358°
2026-05-04 14:48 -41.55377 -73.09802 2388 ft 149 kts 358°
2026-05-04 14:48 -41.54389 -73.09767 2186 ft 138 kts 358°
2026-05-04 14:49 -41.53448 -73.09735 1984 ft 134 kts 359°
2026-05-04 14:49 -41.52523 -73.09707 1778 ft 132 kts 358°
2026-05-04 14:49 -41.51602 -73.09663 1613 ft 132 kts 360°
2026-05-04 14:49 -41.50686 -73.09626 1490 ft 132 kts
2026-05-04 14:50 -41.49766 -73.09603 1280 ft 132 kts 360°
2026-05-04 14:50 -41.48840 -73.09559 1080 ft 134 kts
2026-05-04 14:50 -41.47918 -73.09536 915 ft 133 kts
2026-05-04 14:50 -41.46995 -73.09499 714 ft 133 kts
2026-05-04 14:51 -41.46076 -73.09476 543 ft 131 kts
2026-05-04 14:51 -41.45160 -73.09448 361 ft 132 kts
2026-05-04 14:51 -41.44306 -73.09413 285 ft 104 kts
2026-05-04 14:51 -41.43890 -73.09395 292 ft 16 kts
2026-05-04 14:52 -41.43814 -73.09392 295 ft 11 kts
2026-05-04 14:52 -41.43744 -73.09404 298 ft 10 kts 329°
2026-05-04 14:52 -41.43724 -73.09476 298 ft 6 kts 272°
2026-05-04 14:52 -41.43723 -73.09509 300 ft 2 kts 272°
2026-05-04 14:53 -41.43721 -73.09561 300 ft 10 kts 272°
2026-05-04 14:53 -41.43682 -73.09611 301 ft 9 kts 349°
2026-05-04 14:53 -41.43616 -73.09609 301 ft 10 kts
2026-05-04 14:53 -41.43538 -73.09604 301 ft 12 kts
2026-05-04 14:54 -41.43450 -73.09600 301 ft 13 kts
2026-05-04 14:54 -41.43351 -73.09597 301 ft 12 kts
2026-05-04 14:54 -41.43294 -73.09619 302 ft 9 kts 287°
2026-05-04 14:54 -41.43295 -73.09694 301 ft 7 kts 271°
2026-05-04 14:55 -41.43295 -73.09734 301 ft 3 kts 271°
2026-05-04 14:55 -41.43294 -73.09745 301 ft 0 kts 271°